Simultaneous Nadir Overpasses (SNOs) Predictions

Prediction of SNOs between AURA and LANDSAT-8 Satellite Orbit:

Table of predicted SNOs for the next 14.0 days since TLE Epoch: 2/15/2025
Index Date (AURA) Time (AURA) Lat,Lon (AURA) SZA (AURA ) Date (LANDSAT-8) Time (LANDSAT-8) Lat,Lon (LANDSAT-8) SZA (LANDSAT-8 ) Distance(km) Time Diff (sec)
1 02/15/2025 04:17:24 73.27, 117.37 85.78 02/15/2025 04:16:42 73.29, 117.41 85.81 3.27 42
2 02/15/2025 05:06:44 -73.28, -74.98 94.22 02/15/2025 05:06:10 -73.28, -74.99 94.22 0.22 34
3 02/15/2025 05:56:06 73.29, 92.65 85.78 02/15/2025 05:55:35 73.30, 92.69 85.79 1.68 31
4 02/15/2025 06:45:26 -73.30, -99.70 94.22 02/15/2025 06:45:03 -73.28, -99.70 94.24 2.01 23
5 02/15/2025 07:34:48 73.31, 67.93 85.78 02/15/2025 07:34:28 73.30, 67.98 85.77 1.95 20
6 02/15/2025 08:24:07 -73.27,-124.31 94.28 02/15/2025 08:23:56 -73.28,-124.42 94.26 3.79 11
7 02/15/2025 09:13:29 73.28, 43.32 85.73 02/15/2025 09:13:21 73.30, 43.27 85.75 3.11 8
8 02/15/2025 10:02:49 -73.29,-149.03 94.28 02/15/2025 10:02:49 -73.29,-149.13 94.28 3.21 0
9 02/15/2025 10:52:11 73.30, 18.60 85.73 02/15/2025 10:52:14 73.31, 18.55 85.73 1.63 3
10 02/15/2025 11:41:31 -73.31,-173.75 94.28 02/15/2025 11:41:41 -73.34,-173.74 94.25 3.41 10
11 02/15/2025 12:30:53 73.33, -6.12 85.73 02/15/2025 12:31:07 73.31, -6.16 85.71 2.17 14
12 02/15/2025 13:20:13 -73.34, 161.53 94.28 02/15/2025 13:20:34 -73.35, 161.55 94.27 1.42 21
13 02/15/2025 14:09:35 73.35, -30.84 85.73 02/15/2025 14:09:59 73.37, -30.76 85.74 3.05 24
14 02/15/2025 14:58:55 -73.36, 136.81 94.28 02/15/2025 14:59:27 -73.35, 136.84 94.29 1.14 32
15 02/15/2025 15:48:17 73.37, -55.56 85.73 02/15/2025 15:48:52 73.37, -55.48 85.72 2.47 35
16 02/15/2025 16:37:37 -73.38, 112.09 94.28 02/15/2025 16:38:20 -73.35, 112.12 94.31 3.11 43
17 02/15/2025 17:26:59 73.39, -80.28 85.73 02/15/2025 17:27:45 73.37, -80.19 85.70 3.52 46
18 02/15/2025 18:16:18 -73.35, 87.48 94.33 02/15/2025 18:17:13 -73.36, 87.41 94.33 2.43 55
19 02/15/2025 19:05:40 73.37,-104.89 85.67 02/15/2025 19:06:38 73.38,-104.91 85.68 1.52 58
20 02/15/2025 19:55:00 -73.37, 62.76 94.34 02/15/2025 19:56:06 -73.36, 62.70 94.35 2.54 66
21 02/15/2025 20:44:22 73.39,-129.61 85.67 02/15/2025 20:45:31 73.38,-129.62 85.66 0.90 69
22 02/15/2025 21:33:45 -73.55, 37.71 94.18 02/15/2025 21:34:56 -73.52, 38.31 94.22 19.27 71
23 02/15/2025 22:23:10 73.73,-155.00 85.99 02/15/2025 22:24:19 73.65,-153.78 85.90 39.22 69
24 02/15/2025 23:12:35 -73.99, 12.07 93.75 02/15/2025 23:13:41 -73.94, 14.50 93.82 74.96 66
25 02/16/2025 00:01:59 74.11, 179.45 86.37 02/16/2025 00:03:04 74.07,-177.57 86.30 90.91 65



Historial Predications of SNOs between AURA and LANDSAT-8
